Other Public Products
Issued by NWS Grand Forks, ND

Home | Current Version | Previous Version | Text Only | Print | Product List | Glossary Off
Versions: 1 2 3 4 5 6 7 8 9 10 11 12 13 14 15 16 17 18 19 20 21 22 23 24 25 26 27 28 29 30 31 32 33 34 35 36 37 38 39 40 41 42 43 44 45 46 47 48 49 50

000
FPUS83 KFGF 281510
OPUFGF
PRAIRIE TO PINES WEATHER ROUNDUP
NATIONAL WEATHER SERVICE EASTERN NORTH DAKOTA/GRAND FORKS ND
1000 AM CDT THU MAY 28 2015

 **SATELLITE DATA USED TO AUGMENT SKY COVER AT AUTOMATED STATIONS**
 *****  WEATHER ACROSS EASTERN NORTH DAKOTA  *****

CITY           SKY/WX    TMP DP  RH WIND       PRES   REMARKS
GRAND FORKS    MOSUNNY   64  59  83 SE10      29.88F
GRAND FORKS AF MOSUNNY   64  59  84 E8        29.88F
GRAND CITY NWS   N/A     63 N/A N/A SE10        N/A
BUXTON         NOT AVBL
DEVILS LAKE    PTSUNNY   64  55  72 SE9       29.87S
FARGO          CLOUDY    64  59  83 SE10      29.89F
WAHPETON ARPT  PTSUNNY   70  55  60 S12       29.92S
$$

 *****  WEATHER ACROSS CENTRAL AND WESTERN NORTH DAKOTA  *****

CITY           SKY/WX    TMP DP  RH WIND       PRES   REMARKS
JAMESTOWN      MOSUNNY   68  60  75 S15G22    29.85F
BISMARCK       CLOUDY    67  58  72 VRB3      29.88S
MINOT          CLOUDY    63  57  81 W10       29.85R
MINOT AFB      CLOUDY    64  64 100 W2        29.84S
GARRISON         N/A     62  58  86 SW10      29.85S
WILLISTON      MOSUNNY   63  57  81 SW6       29.87F
DICKINSON      SUNNY     63  56  78 W8        29.89R
HETTINGER      CLOUDY    59  56  89 NW8       29.93R
$$

 *****  OTHER OBSERVATIONS NORTHEAST NORTH DAKOTA  *****

CITY           SKY/WX    TMP DP  RH WIND       PRES   REMARKS
WALHALLA         N/A     55  55 100 MISG      29.90F
LANGDON        PTSUNNY   61  57  88 SE15      29.89F
CAVALIER       CLOUDY    59  59 100 SE3       29.89F
GRAFTON        FAIR      63  63 100 E9G15     29.90F
CANDO          FAIR      66  59  77 S9G16     29.87F
FORT TOTTEN      N/A     67  59  75 S10       29.95S
ROLLA          CLOUDY    59  59 100 SE9       29.88F
RUGBY          NOT AVBL
 ***** THE ABOVE OBSERVATIONS ARE NON NWS ARE NOT QUALITY
        CONTROLLED AND MAY MIS-REPORT RAIN FOR SNOW...
$$

 *****  OTHER OBSERVATIONS SOUTHEAST NORTH DAKOTA *****

CITY           SKY/WX    TMP DP  RH WIND       PRES   REMARKS
COOPERSTOWN    NOT AVBL
VALLEY CITY    FAIR      68  64  88 S14       29.88F
OAKES            N/A     70  64  83 S22       29.89F
GWINNER        NOT AVBL
SHEYENNE NWR     N/A     66  61  85 SE8       29.95S
BUFFALO        NOT AVBL
WYNDMERE         N/A    N/A N/A N/A SE8         N/A
 ***** THE ABOVE OBSERVATIONS ARE NON NWS ARE NOT QUALITY
       CONTROLLED AND MAY MIS-REPORT RAIN FOR SNOW...
$$

  *****  WEATHER ACROSS NORTHERN MINNESOTA  *****

CITY           SKY/WX    TMP DP  RH WIND       PRES   REMARKS
FLAG ISLAND    HVY RAIN  54  52  94 E3        29.97F
WARROAD        LGT RAIN  55  52  88 E12       29.95F
ROSEAU         LGT RAIN  55  52  88 E9        29.93F
HALLOCK        CLOUDY    59  57  94 E9        29.89F
THF RVR FALLS  CLOUDY    57  55  94 E13       29.92F
HALSTAD        NOT AVBL
FOSSTON        CLOUDY    57  55  94 E6        29.93F
BAUDETTE       LGT RAIN  54  52  93 SE8       29.99F FOG
WASKISH        LGT RAIN  57  55  94 CALM      29.98F
CROOKSTON      CLOUDY    59  57  94 SE10      29.91S
$$
  *****  WEATHER ACROSS CENTRAL AND WEST MINNESOTA  *****

CITY           SKY/WX    TMP DP  RH WIND       PRES   REMARKS
BEMIDJI        CLOUDY    58  55  88 E7        29.97F
PARK RAPIDS    CLOUDY    69  54  58 S7        29.96F
WADENA         PTSUNNY   72  54  53 S12       29.96F
DETROIT LAKES  CLOUDY    64  55  72 SE7       29.95F
MOORHEAD       LGT RAIN  64  59  82 SE7       29.90F
FERGUS FALLS   PTSUNNY   75  55  50 S15       29.93F
ELBOW LAKE     FAIR      74  59  58 S17       29.96S
MORRIS MN      MOSUNNY   73  57  56 S13       29.97S
STAPLES        PTSUNNY   72  54  53 S9        29.99R
WHEATON        PTSUNNY   72  55  56 S18       29.96S
$$
  *****  WEATHER ELSEWHERE ACROSS MINNESOTA  *****

CITY           SKY/WX    TMP DP  RH WIND       PRES   REMARKS
DULUTH         MOSUNNY   50  43  77 E17       30.09S
INTRNTL FALLS  CLOUDY    59  48  67 W6        30.04R
ELY            NOT AVBL
CLOQUET        MOSUNNY   48  41  76 E10       30.08S
BRAINERD       PTSUNNY   70  55  59 S10       30.00F
HIBBING        CLOUDY    58  48  69 SE8       30.04F
ALEXANDRIA     MOSUNNY   71  55  56 S10       30.01S
SAINT CLOUD    PTSUNNY   73  56  54 S9        30.02F
MINNEAPOLIS    MOSUNNY   78  54  43 SW9       30.06F
$$

  *****  WEATHER ACROSS SOUTH DAKOTA  *****

CITY           SKY/WX    TMP DP  RH WIND       PRES   REMARKS
SIOUX FALLS    CLOUDY    70  55  59 S10       30.02F
BROOKINGS      CLOUDY    63  57  82 S3        30.05F
WATERTOWN      LGT RAIN  63  59  87 S14       29.99S
HURON            N/A    N/A N/A N/A MISG      29.93F
SISSETON         N/A     73  59  61 SW25G32   29.93R
ABERDEEN       MOSUNNY   73  61  65 S20       29.90F
MITCHELL       MOSUNNY   73  59  61 SE22      29.95F
PIERRE         MOSUNNY   70  58  65 S9        29.86F
MOBRIDGE       MOSUNNY   67  62  84 SW6       29.85F
RAPID CITY     MOSUNNY   64  55  72 N12       29.95R
$$

  *****  SOME WEATHER IN NEARBY STATES *****

CITY           SKY/WX    TMP DP  RH WIND       PRES   REMARKS
GLASGOW MT     PTSUNNY   64  53  67 NW9       29.92S
GREAT FALLS MT CLOUDY    54  49  83 W8        30.06R
CHEYENNE WY    PTSUNNY   59  44  57 SW3       30.09F
SCOTTSBLUFF NE MOSUNNY   63  56  78 MISG      30.02R
OMAHA NE       CLOUDY    68  58  70 S13       30.03F
DES MOINES IA  CLOUDY    74  59  59 S15       30.10F
DAVENPORT IA   MOSUNNY   75  59  57 S10       30.18F
CHICAGO IL     MOSUNNY   75  57  53 S5        30.21R
EAU CLAIRE WI  SUNNY     76  57  51 S8        30.09F
LA CROSSE WI   MOSUNNY   75  60  59 S7        30.12F
$$

  *****  SOME NATIONAL WEATHER *****

CITY           SKY/WX    TMP DP  RH WIND       PRES   REMARKS
LA GUARDIA NY  PTSUNNY   75  64  69 S6        30.16F
RALEIGH NC     CLOUDY    75  69  81 S5        30.25S
ATLANTA GA     PTSUNNY   76  66  71 SE8       30.23S
NEW ORLEANS LA PTSUNNY   83  68  60 CALM      30.11F
OKLAHOMA CITY  CLOUDY    66  64  93 S7        30.05R
ALBUQUERQUE NM MOSUNNY   65  36  34 CALM      30.15R
SALT LAKE CITY PTSUNNY   57  46  66 SE13      30.11R
LOS ANGELES CA CLOUDY    59  55  87 SE3       30.00R
BOISE ID       SUNNY     60  45  57 CALM      30.10R
SEATTLE WA     MOSUNNY   59  54  83 CALM      30.10R
$$

*** WEATHER ACROSS MANITOBA...SASKATCHEWAN AND ONTARIO ***
                ***ONTARIO***

CITY           SKY/WX    TMP DP  RH WIND       PRES   REMARKS
GERALDTON      NOT AVBL
THUNDER BAY    PTSUNNY   50  41  71 E17       30.20F
SIOUX LOOKOUT  CLOUDY    54  43  66 SE8       30.06F
TORONTO        MOSUNNY   72  52  49 N14G21    30.22R
BIG TROUT LK   MOSUNNY   48  34  57 E9        30.21F
PICKLE LAKE    CLOUDY    52  32  46 SE20      30.14F
DRYDEN         LGT RAIN  54  46  76 S6        30.06R
KENORA         LGT RAIN  54  52  94 SE5       30.01F FOG
$$
                *** MANITOBA***

CITY           SKY/WX    TMP DP  RH WIND       PRES   REMARKS
BRANDON        LGT RAIN  54  50  87 E7        29.91S
DAUPHIN        RAIN      48  46  93 VRB2      29.90F FOG
ISLAND LAKE    PTSUNNY   54  30  40 E10G22    30.02F
PILOT MOUND      N/A     57  55  94 SE10        N/A
THE PAS        LGT RAIN  46  43  87 VRB2      29.91S
THOMPSON       LGT RAIN  37  36  93 NE12G20   30.05S
WINNIPEG       LGT RAIN  55  54  94 SE6       29.92F
LYNN LAKE      LGT SNOW  32  30  93 NE22G31   30.11R WCI  19
CHURCHILL      CLOUDY    32  19  59 NE7       30.36S
GILLAM         SNOW      30  27  86 E10G21    30.23F VSB 1/2 WCI  21
$$
                ***SASKATCHEWAN***

CITY           SKY/WX    TMP DP  RH WIND       PRES   REMARKS
ESTEVAN        CLOUDY    59  57  94 NE8       29.88S FOG
KINDERSLEY     CLOUDY    48  46  93 N23G29    30.07R
LLOYDMINSTER   PTSUNNY   45  36  70 N17G25    30.17R
PRINCE ALBERT  LGT RAIN  45  41  87 N21G30    30.04R
REGINA         PTSUNNY   59  54  82 SW5       29.93R



USA.gov is the U.S. government's official web portal to all federal, state and local government web resources and services.